User: anonymous   Login
Location: Theydon Bois
(51.6750°N, 0.1050°E)
Time: 12:57:02
(UTC+00:00)
Language:

Cosmos 1000 Rocket - Orbit

View from above orbital plane
View from above orbital plane
View from above satellite
View from above satellite

Ground track
Ground track

The orbit data is extracted from the following two-line orbital elements,

1 10777U 78034B   18017.16058340  .00000098  00000-0  82957-4 0  9990
2 10777  82.9418  71.4372 0025056 321.0896  90.9833 13.77393078999846
Epoch (UTC): 17 January 2018 03:51:14
Eccentricity: 0.0025056
inclination: 82.9418°
perigee height: 955 km
apogee height: 991 km
right ascension of ascending node: 71.4372°
argument of perigee: 321.0896°
revolutions per day: 13.77393078
mean anomaly at epoch: 90.9833°
orbit number at epoch: 99984

The dashed part of the orbit path shows where the satellite is in the earth's shadow,  

DLR